Tracking 25734 objects as of 28-May-2022
HD Live streaming from Space Station
objects crossing your sky now

NOAA 17 DEB

Track NOAA 17 DEB now!
10-day predictions


NORAD ID: 48178
Int'l Code: 2002-032U
Perigee: 800.7 km
Apogee: 823.4 km
Inclination: 98.8 °
Period: 101.0 minutes
Semi major axis: 7183 km
RCS: Unknown
Launch date: June 24, 2002
Source: United States (US)
Launch site: AIR FORCE WESTERN TEST RANGE (AFWTR)

Note: This is SATELLITE DEBRIS
aabbcc
Your satellite tracking list
Your tracking list is empty




NASA's NSSDC Master Catalog

Two Line Element Set (TLE):
1 48178U 02032T   22146.65416624  .00003382  00000-0  14319-2 0  9990
2 48178  98.7996  99.2888 0015850 321.0497  38.9540 14.26069651 60912
Source of the keplerian elements: AFSPC